Gold Coast Seaway Observation History
Time Wind Speed Temp Pressure Rel. Hum Rain
15/07:30pm N 10-14 kts 24.3°c 1011.7 hPa 83% 0.0mm
15/07:00pm N 11-14 kts 24.5°c 1011.4 hPa 83% 0.0mm
15/06:30pm NNW 12-17 kts 24.8°c 1011.0 hPa 83% 0.0mm
15/06:00pm NNE 10-12 kts 23.8°c 1010.6 hPa 88% 0.0mm
15/05:30pm N 15-18 kts 24.4°c 1010.1 hPa 87% 0.0mm
15/05:00pm N 18-22 kts 24.6°c 1009.5 hPa 87% 0.0mm
15/04:30pm N 23-27 kts 24.9°c 1009.1 hPa 85% 0.0mm
15/04:00pm N 19-23 kts 25.2°c 1008.9 hPa 84% 0.0mm
15/03:30pm NNE 19-22 kts 25.6°c 1008.9 hPa 83% 0.0mm
15/03:00pm NNE 19-22 kts 25.9°c 1009.0 hPa 83% 0.0mm
15/02:30pm NNE 18-22 kts 26.5°c 1009.3 hPa 79% 0.0mm
15/02:00pm NNE 18-21 kts 26.7°c 1009.7 hPa 77% 0.0mm
15/01:30pm NNE 17-20 kts 27.1°c 1010.2 hPa 76% 0.0mm
15/01:00pm NNE 17-21 kts 27.4°c 1010.5 hPa 76% 0.0mm
15/12:30pm NNE 16-19 kts 26.7°c 1011.0 hPa 78% 0.0mm
15/12:00pm NE 17-18 kts 26.2°c 1011.5 hPa 82% 0.0mm
15/11:30am NE 15-17 kts 25.6°c 1012.2 hPa 84% 0.0mm
15/11:00am NE 15-17 kts 25.6°c 1012.9 hPa 83% 0.0mm
15/10:30am NE 15-17 kts 27.0°c 1013.6 hPa 79% 0.0mm
15/10:00am NE 14-16 kts 26.1°c 1014.0 hPa 80% 0.0mm
15/09:30am NE 12-14 kts 26.2°c 1014.2 hPa 78% 0.0mm
15/09:00am NE 11-14 kts 25.6°c 1014.3 hPa 82% 0.0mm
15/08:30am NNE 10-11 kts 25.9°c 1014.6 hPa 80% 0.0mm
15/08:00am NNE 9-12 kts 24.9°c 1014.6 hPa 83% 0.0mm
15/07:30am NNW 6-8 kts 23.7°c 1014.5 hPa 81% 0.0mm
15/07:00am NW 6-7 kts 23.0°c 1014.5 hPa 86% 0.0mm
15/06:30am WNW 4-5 kts 22.4°c 1014.4 hPa 88% 0.0mm
15/06:00am WNW 4 kts 21.3°c 1014.3 hPa 92% 0.0mm
15/05:30am CALM 0 kts 20.0°c 1014.0 hPa 93% 0.0mm
15/05:00am CALM 0 kts 19.8°c 1013.8 hPa 92% 0.0mm
15/04:30am W 1-5 kts 19.6°c 1013.5 hPa 92% 0.0mm
15/04:00am W 3-4 kts 19.4°c 1013.3 hPa 90% 0.0mm
15/03:30am W 4-6 kts 20.0°c 1013.3 hPa 90% 0.0mm
15/03:00am SW 4 kts 20.2°c 1013.3 hPa 90% 0.0mm
15/02:30am SW 5-6 kts 20.0°c 1013.3 hPa 89% 0.0mm
15/02:00am SSW 1-5 kts 20.3°c 1013.3 hPa 89% 0.0mm
15/01:30am SE 2-5 kts 20.7°c 1013.7 hPa 90% 0.0mm
15/01:00am CALM 0 kts 20.7°c 1014.0 hPa 92% 0.0mm
15/12:30am CALM 0 kts 20.5°c 1014.3 hPa 92% 0.0mm
15/12:00am CALM 0 kts 20.6°c 1014.5 hPa 92% 0.0mm
Time Wind Speed Temp Pressure Rel. Hum Rain
14/11:30pm CALM 0 kts 20.6°c 1014.7 hPa 92% 0.0mm
14/11:00pm ENE 3-4 kts 20.7°c 1014.9 hPa 92% 0.0mm
14/10:30pm ENE 4 kts 20.4°c 1015.0 hPa 90% 0.0mm
14/10:00pm ENE 4 kts 21.3°c 1015.1 hPa 91% 0.0mm
14/09:30pm ENE 4-5 kts 21.6°c 1015.0 hPa 91% 0.0mm
14/09:00pm ENE 5-6 kts 21.6°c 1014.8 hPa 90% 0.0mm
14/08:30pm ENE 7-8 kts 21.9°c 1014.6 hPa 88% 0.0mm
14/08:00pm ENE 7-8 kts 22.1°c 1014.4 hPa 88% 0.0mm
14/07:30pm ENE 7-8 kts 22.2°c 1014.3 hPa 86% 0.0mm
14/07:00pm ENE 7-9 kts 22.3°c 1014.0 hPa 87% 0.0mm
14/06:30pm ENE 7-9 kts 22.1°c 1013.6 hPa 86% 0.0mm
14/06:00pm ENE 9-10 kts 22.2°c 1013.3 hPa 84% 0.0mm
14/05:30pm ENE 9-11 kts 22.7°c 1012.9 hPa 82% 0.0mm
14/05:00pm ENE 9-11 kts 23.0°c 1012.6 hPa 78% 0.0mm
14/04:30pm ENE 11-13 kts 23.3°c 1012.3 hPa 77% 0.0mm
14/04:00pm ENE 11-13 kts 23.8°c 1012.2 hPa 72% 0.0mm
14/03:30pm ENE 11-14 kts 23.9°c 1012.4 hPa 71% 0.0mm
14/03:00pm NE 10-13 kts 23.9°c 1012.5 hPa 70% 0.0mm
14/02:30pm NE 11-14 kts 24.0°c 1012.6 hPa 68% 0.0mm
14/02:00pm ENE 10-13 kts 25.1°c 1012.7 hPa 70% 0.0mm
14/01:30pm ENE 11-14 kts 25.1°c 1013.1 hPa 67% 0.0mm
14/01:00pm ENE 12-14 kts 24.8°c 1013.4 hPa 69% 0.0mm
14/12:30pm ENE 11-14 kts 25.1°c 1013.8 hPa 65% 0.0mm
14/12:00pm ENE 13-15 kts 25.1°c 1014.3 hPa 65% 0.0mm
14/11:30am NE 11-13 kts 24.4°c 1014.7 hPa 71% 0.0mm
14/11:00am NE 12-14 kts 23.9°c 1015.0 hPa 71% 0.0mm
14/10:30am NE 10-11 kts 24.4°c 1015.5 hPa 69% 0.0mm
14/10:00am NE 8-9 kts 23.8°c 1016.0 hPa 69% 0.0mm
14/09:30am NE 7-8 kts 24.2°c 1016.2 hPa 67% 0.0mm
14/09:00am ENE 5-6 kts 24.1°c 1016.5 hPa 65% 0.0mm
14/08:30am E 4-5 kts 23.8°c 1016.4 hPa 64% 0.0mm
14/08:00am CALM 0 kts 23.4°c 1016.4 hPa 66% 0.0mm
14/07:30am CALM 0 kts 23.3°c 1016.2 hPa 68% 0.0mm
14/07:00am CALM 0 kts 22.8°c 1016.1 hPa 69% 0.0mm
14/06:30am ESE 4-5 kts 21.9°c 1016.0 hPa 70% 0.0mm
14/06:00am E 5-6 kts 21.2°c 1015.7 hPa 77% 0.0mm
14/05:30am E 7-8 kts 20.3°c 1015.3 hPa 75% 0.0mm
14/05:00am ESE 8-9 kts 20.2°c 1014.9 hPa 80% 0.0mm
14/04:30am ESE 9-10 kts 20.3°c 1014.7 hPa 81% 0.0mm
14/04:00am ESE 9-10 kts 20.3°c 1014.4 hPa 82% 0.0mm
14/03:30am ESE 11-13 kts 20.5°c 1014.3 hPa 82% 0.0mm
14/03:00am ESE 10-12 kts 20.6°c 1014.3 hPa 83% 0.0mm
14/02:30am ESE 12-14 kts 20.8°c 1014.2 hPa 82% 0.0mm
14/02:00am ESE 12-14 kts 21.1°c 1014.2 hPa 83% 0.0mm
14/01:30am SE 11-13 kts 20.9°c 1014.2 hPa 80% 0.0mm
14/01:00am SE 8-9 kts 21.1°c 1014.2 hPa 80% 0.0mm
14/12:30am ESE 9-10 kts 21.1°c 1014.3 hPa 79% 0.0mm
14/12:00am ESE 9-10 kts 21.0°c 1014.5 hPa 79% 0.0mm
Time Wind Speed Temp Pressure Rel. Hum Rain
13/11:30pm ESE 9-11 kts 20.9°c 1014.7 hPa 79% 0.0mm
13/11:00pm SE 10-12 kts 21.0°c 1014.7 hPa 78% 0.0mm
13/10:30pm SE 11-13 kts 21.1°c 1015.0 hPa 78% 0.0mm
13/10:00pm SE 10-13 kts 21.1°c 1015.2 hPa 77% 0.0mm
13/09:30pm SE 13-15 kts 21.4°c 1015.0 hPa 81% 0.0mm
13/09:00pm SE 12-15 kts 21.2°c 1014.8 hPa 80% 0.0mm
13/08:30pm SSE 10-12 kts 21.1°c 1014.7 hPa 85% 0.0mm
13/08:00pm SE 12-15 kts 21.1°c 1014.1 hPa 81% 0.0mm
13/07:30pm SSE 13-15 kts 21.0°c 1013.9 hPa 83% 0.0mm
13/07:00pm SSE 13-15 kts 21.1°c 1013.5 hPa 82% 0.0mm
13/06:30pm SSE 13-15 kts 21.1°c 1013.2 hPa 80% 0.0mm
13/06:00pm SE 13-16 kts 21.3°c 1012.8 hPa 79% 0.0mm
13/05:30pm SE 13-16 kts 21.8°c 1012.3 hPa 78% 0.0mm
13/05:00pm SE 16-19 kts 22.2°c 1011.9 hPa 75% 0.0mm
13/04:30pm SE 17-20 kts 22.6°c 1011.5 hPa 74% 0.0mm
13/04:00pm SSE 18-21 kts 22.9°c 1011.2 hPa 72% 0.0mm
13/03:30pm SE 18-22 kts 23.5°c 1011.0 hPa 73% 0.0mm
13/03:00pm SE 19-22 kts 24.1°c 1011.1 hPa 71% 0.0mm
13/02:30pm SSE 18-22 kts 24.4°c 1011.4 hPa 71% 0.0mm
13/02:00pm SE 15-18 kts 25.2°c 1011.2 hPa 72% 0.0mm
13/01:30pm SSE 17-20 kts 25.2°c 1011.1 hPa 73% 0.0mm
13/01:00pm SSE 18-21 kts 25.2°c 1011.4 hPa 72% 0.0mm
13/12:30pm SSE 19-23 kts 25.1°c 1011.7 hPa 70% 0.0mm
13/12:00pm SSE 19-24 kts 25.6°c 1011.7 hPa 69% 0.0mm
13/11:30am SSE 20-26 kts 25.4°c 1011.9 hPa 70% 0.0mm
13/11:00am SSE 19-24 kts 25.3°c 1012.0 hPa 71% 0.0mm
13/10:30am SSE 21-27 kts 25.0°c 1011.8 hPa 72% 0.0mm
13/10:00am SE 23-28 kts 24.9°c 1011.8 hPa 74% 0.0mm
13/09:30am SE 23-30 kts 24.8°c 1011.9 hPa 74% 0.0mm
13/09:00am SE 19-25 kts 25.1°c 1011.7 hPa 74% 0.0mm
13/08:30am SE 18-27 kts 24.9°c 1011.5 hPa 73% 0.0mm
13/08:23am SE 12-18 kts 25.1°c 1011.5 hPa 70% 0.0mm
13/08:00am NNE 6-7 kts 26.6°c 1011.0 hPa 60% 0.0mm
13/07:30am N 4-6 kts 25.6°c 1011.0 hPa 62% 0.0mm
13/07:00am NNW 4-7 kts 25.1°c 1010.4 hPa 62% 0.0mm
13/06:30am NNW 12-18 kts 23.3°c 1009.2 hPa 69% 0.0mm
13/06:00am NNW 14-18 kts 22.4°c 1008.7 hPa 75% 0.0mm
13/05:30am NNW 12-16 kts 22.0°c 1008.8 hPa 75% 0.0mm
13/05:00am NNW 9-13 kts 21.4°c 1008.9 hPa 78% 0.0mm
13/04:30am NNW 7-10 kts 21.2°c 1008.3 hPa 79% 0.0mm
13/04:00am WNW 7-9 kts 21.1°c 1008.4 hPa 78% 0.0mm
13/03:30am NW 5-8 kts 21.2°c 1008.0 hPa 78% 0.0mm
13/03:00am NNW 7-10 kts 22.2°c 1007.9 hPa 81% 0.0mm
13/02:30am NNW 9-12 kts 22.0°c 1007.8 hPa 79% 0.0mm
13/02:00am NW 9-12 kts 22.1°c 1008.1 hPa 79% 0.0mm
13/01:30am NNW 9-13 kts 22.3°c 1008.2 hPa 79% 0.0mm
13/01:00am NW 10-14 kts 22.5°c 1008.4 hPa 80% 0.0mm
13/12:30am NNW 10-14 kts 22.8°c 1008.7 hPa 79% 0.0mm
13/12:00am NNW 11-17 kts 23.0°c 1009.0 hPa 78% 0.0mm